Location: Hartford
(41.7640°N, 72.6860°W)
Time: 00:19:33
(UTC-04:00)

ISS - Visible Passes

Search period start: 23 September 2014 00:00
Search period end: 03 October 2014 00:00
Orbit: 414 x 416 km, 51.6° (Epoch: 22 September)

Date Brightness Start Highest point End Pass type
(mag) Time Alt. Az. Time Alt. Az. Time Alt. Az.
23 Sep -0.3 04:07:27 14° NNE 04:07:27 14° NNE 04:08:17 10° NNE visible
23 Sep -0.8 05:41:24 10° NNW 05:43:41 17° N 05:45:58 10° NE visible
24 Sep -0.8 04:53:24 14° NNW 04:54:30 15° N 04:56:35 10° NE visible
25 Sep -0.2 04:06:29 13° NNE 04:06:29 13° NNE 04:07:17 10° NE visible
25 Sep -1.2 05:40:04 10° NW 05:42:51 24° NNE 05:45:37 10° ENE visible
26 Sep -1.0 04:52:28 16° NNW 04:53:39 19° NNE 04:56:09 10° ENE visible
27 Sep -0.2 04:05:39 14° NE 04:05:39 14° NE 04:06:38 10° NE visible
27 Sep -2.2 05:38:32 10° NW 05:41:44 43° NNE 05:44:56 10° ESE visible
28 Sep -1.6 04:51:47 26° N 04:52:35 30° NNE 04:55:34 10° E visible
29 Sep -0.1 04:05:08 15° ENE 04:05:08 15° ENE 04:06:03 10° ENE visible
29 Sep -3.4 05:38:02 19° WNW 05:40:20 76° SW 05:43:38 10° SE visible
30 Sep -2.8 04:51:31 59° ENE 04:51:31 59° ENE 04:54:30 10° ESE visible
01 Oct 0.1 04:05:08 10° E 04:05:08 10° E 04:05:09 10° E visible
01 Oct -2.2 05:38:03 26° WSW 05:38:36 27° SW 05:41:27 10° SSE visible
02 Oct -1.0 04:51:50 17° SSE 04:51:50 17° SSE 04:52:44 10° SE visible
